Regional Weather Roundup
Issued by NWS

Home | Current Version | Previous Version | Text Only | Print | Product List | Glossary On
Versions: 1 2 3 4 5 6 7 8 9 10 11 12 13 14 15 16 17 18 19 20 21 22 23 24 25 26 27 28 29 30 31 32 33 34 35 36 37 38 39 40 41 42 43 44 45 46 47 48 49 50
000
ASUS43 KFSD 211610
RWRSD

WEATHER ROUNDUP FOR SOUTH DAKOTA
NATIONAL WEATHER SERVICE SIOUX FALLS SD
1000 AM CST TUE NOV 21 2017

NOTE: "FAIR" INDICATES FEW OR NO CLOUDS BELOW 12,000 FEET WITH NO
SIGNIFICANT WEATHER AND/OR OBSTRUCTIONS TO VISIBILITY.


SDZ001>005-009-010-012>017-211700-
NORTHWEST AND NORTH CENTRAL SOUTH DAKOTA

CITY           SKY/WX    TMP DP  RH WIND       PRES   REMARKS
BUFFALO          N/A     14   3  61 NW21      30.25R WCI  -4
FAITH            N/A     14   2  58 N18G24    30.34R WCI  -3
MOBRIDGE       CLOUDY    15   4  61 NW21      30.31S WCI  -2
$$

SDZ012>016-024>037-041>051-057-063-072>074-211700-
SOUTHWEST AND SOUTH CENTRAL SOUTH DAKOTA

CITY           SKY/WX    TMP DP  RH WIND       PRES   REMARKS
RAPID CTY ARPT CLOUDY    25  20  81 N15       30.30R WCI  13
PIERRE         CLOUDY    16   5  62 N21G30    30.36R WCI  -1
CUSTER         PTSUNNY   29  19  66 CALM      30.20R
ELLSWORTH AFB  CLOUDY    25  22  88 N13       30.29R WCI  14
PHILIP         CLOUDY    19   6  57 N24G32    30.35R WCI   2
PINE RIDGE     CLOUDY    30  22  72 N12       30.30R WCI  20
SPEARFISH      FAIR      27  18  69 W13       30.29R WCI  16
WINNER         FAIR      18   9  68 NW20      30.33R WCI   2
$$

SDZ004>011-016>023-039-040-211700-
NORTHEAST SOUTH DAKOTA

CITY           SKY/WX    TMP DP  RH WIND       PRES   REMARKS
ABERDEEN       SUNNY     17   6  62 N22G30    30.30R WCI   0
WATERTOWN      CLOUDY    16   8  71 NW25      30.18R WCI  -3
BROOKINGS      FLURRIES  17   9  70 NW24      30.19R WCI  -1
SISSETON         N/A     19   9  65 NW26G37   30.22R WCI   1
$$

SDZ017-020-022-023-036>040-048>070-211700-
SOUTHEAST SOUTH DAKOTA

CITY           SKY/WX    TMP DP  RH WIND       PRES   REMARKS
SIOUX FALLS    MOSUNNY   22  10  60 NW20G30   30.21R WCI   7
HURON          SUNNY     18   6  59 NW25      30.30R WCI   0
CHAMBERLAIN    MOSUNNY   19   9  65 N17G25    30.33R WCI   4
MITCHELL       SUNNY     20   7  57 NW26G35   30.31R WCI   2
YANKTON        SUNNY     21   9  59 NW22G31   30.26R WCI   5
$$

ABBREVIATIONS USED IN REMARKS
   TC - TEMPERATURE IN CELSIUS
  WCI - WIND CHILL INDEX
   HX - HEAT INDEX
  VSB - VISIBILITY





USA.gov is the U.S. government's official web portal to all federal, state and local government web resources and services.